Location: Unspecified
(0.0000°N, 0.0000°E)
Time: 18:15:45
(UTC+00:00)

Vanguard 1 Rocket - All Passes

Search period start: 18 January 2020 00:00
Search period end: 28 January 2020 00:00
Orbit: 650 x 4226 km, 34.3° (Epoch: 17 January)

Date Brightness Start Highest point End Pass type
(mag) Time Alt. Az. Time Alt. Az. Time Alt. Az.
18 Jan - 06:01:16 10° S 06:04:37 20° SE 06:08:42 10° E daylight
18 Jan - 08:24:17 10° WSW 08:29:38 46° NNW 08:38:54 10° NE daylight
18 Jan - 10:53:08 10° NW 10:59:24 17° N 11:08:20 10° NNE daylight
18 Jan - 13:25:13 10° NNW 13:35:53 17° NNE 13:49:36 10° NE daylight
18 Jan - 15:54:03 10° NNW 16:15:07 36° NNE 16:36:30 10° E daylight
18 Jan - 18:24:04 10° NW 18:50:49 76° NE 19:09:36 10° ESE visible
18 Jan - 20:59:57 10° WNW 21:22:06 46° SW 21:35:11 10° SSE visible
19 Jan - 07:13:34 10° SW 07:18:18 88° SE 07:25:51 10° NE daylight
19 Jan - 09:40:11 10° WNW 09:45:43 21° NNW 09:54:06 10° NNE daylight
19 Jan - 12:12:15 10° NNW 12:19:07 14° N 12:27:57 10° NNE daylight
19 Jan - 14:41:18 10° NNW 14:57:53 26° NNE 15:17:32 10° ENE daylight
19 Jan - 17:09:49 10° NW 17:34:58 57° NE 17:56:15 10° ESE daylight
19 Jan - 19:42:21 10° WNW 20:08:13 68° SW 20:24:24 10° SE visible
19 Jan - 22:24:52 10° W 22:38:15 22° SW 22:47:16 10° S visible
20 Jan - 06:03:34 10° SSW 06:07:36 33° SE 06:12:43 10° ENE daylight
20 Jan - 08:28:08 10° W 08:33:07 30° NNW 08:41:04 10° NNE daylight
20 Jan - 10:58:53 10° NNW 11:03:43 13° N 11:09:54 10° NNE daylight
20 Jan - 13:29:06 10° NNW 13:40:36 18° NNE 13:55:23 10° NE daylight
20 Jan - 15:56:33 10° NNW 16:18:31 42° NNE 16:40:56 10° E daylight
20 Jan - 18:26:33 10° NW 18:53:24 89° NE 19:12:39 10° SE visible
20 Jan - 21:03:53 10° W 21:24:44 38° SW 21:37:43 10° SSE visible
21 Jan - 04:55:00 10° SSE 04:56:41 12° SE 04:58:23 10° ESE visible
21 Jan - 07:16:53 10° WSW 07:21:29 55° NNW 07:28:35 10° NE daylight
21 Jan - 09:45:22 10° NW 09:49:42 15° NNW 09:55:28 10° NNE daylight
21 Jan - 12:17:19 10° NNW 12:23:51 13° N 12:32:01 10° NE daylight
21 Jan - 14:44:06 10° NNW 15:01:47 30° NNE 15:22:54 10° E daylight
21 Jan - 17:12:11 10° NW 17:37:43 68° NE 17:59:39 10° ESE daylight
21 Jan - 19:45:29 10° WNW 20:10:42 57° SW 20:27:04 10° SE visible
21 Jan - 22:30:48 10° WSW 22:41:35 17° SW 22:49:25 10° S visible
22 Jan - 06:06:18 10° SW 06:10:37 60° SE 06:16:11 10° ENE daylight
22 Jan - 08:32:30 10° WNW 08:36:47 20° NNW 08:42:53 10° NNE daylight
22 Jan - 11:05:46 10° N 11:08:12 11° N 11:10:55 10° NNE daylight
22 Jan - 13:32:23 10° NNW 13:45:01 21° NNE 14:01:27 10° ENE daylight
22 Jan - 15:58:58 10° NW 16:21:34 50° NE 16:44:56 10° ESE daylight
22 Jan - 18:29:13 10° NW 18:55:52 79° SW 19:15:29 10° SE visible
22 Jan - 21:08:23 10° W 21:27:35 31° SW 21:40:10 10° SSE visible
23 Jan - 04:56:25 10° SSW 04:59:52 21° SE 05:03:24 10° E visible
23 Jan - 07:20:34 10° W 07:24:50 33° NNW 07:31:00 10° NNE daylight
23 Jan - 09:52:31 10° NNW 09:53:50 10° N 09:55:16 10° N daylight
23 Jan - 12:21:30 10° N 12:28:32 14° NNE 12:37:22 10° NE daylight
23 Jan - 14:46:42 10° NNW 15:05:17 36° NNE 15:27:46 10° E daylight
23 Jan - 17:14:39 10° NW 17:40:17 79° NE 18:02:47 10° ESE daylight
23 Jan - 19:48:59 10° WNW 20:13:15 48° SW 20:29:39 10° SSE visible
23 Jan - 22:37:31 10° WSW 22:45:17 14° SSW 22:51:24 10° S visible
24 Jan - 06:09:22 10° WSW 06:13:42 75° NW 06:19:15 10° NE daylight
24 Jan - 08:37:50 10° NW 08:40:36 13° NNW 08:43:59 10° N daylight
24 Jan - 13:35:15 10° NNW 13:49:03 24° NNE 14:07:23 10° ENE daylight
24 Jan - 16:01:25 10° NW 16:24:20 59° NE 16:48:32 10° ESE daylight
24 Jan - 18:32:09 10° WNW 18:58:18 68° SW 19:18:11 10° SE visible
24 Jan - 21:13:30 10° W 21:30:45 25° SW 21:42:36 10° SSE visible
25 Jan - 04:58:45 10° SSW 05:03:01 38° SE 05:07:19 10° ENE visible
25 Jan - 07:24:46 10° WNW 07:28:19 20° NNW 07:32:59 10° NNE daylight
25 Jan - 12:24:48 10° N 12:33:01 15° NNE 12:43:38 10° NE daylight
25 Jan - 14:49:12 10° NNW 15:08:24 43° NE 15:32:09 10° E daylight
25 Jan - 17:17:17 10° NW 17:42:44 89° SW 18:05:41 10° SE daylight
25 Jan - 19:52:58 10° W 20:15:59 40° SW 20:32:10 10° SSE visible
25 Jan - 22:45:00 10° SW 22:49:20 11° SSW 22:53:06 10° S visible
26 Jan - 03:48:47 10° S 03:51:52 16° SSE 03:54:38 10° ESE visible
26 Jan - 06:12:48 10° WSW 06:16:55 40° NNW 06:21:58 10° NE daylight
26 Jan - 13:37:53 10° NNW 13:52:41 29° NNE 14:12:50 10° E daylight
26 Jan - 16:03:55 10° NW 16:26:54 70° NE 16:51:48 10° ESE daylight
26 Jan - 18:35:23 10° WNW 19:00:48 57° SW 19:20:46 10° SE visible
26 Jan - 21:19:15 10° WSW 21:34:16 21° SSW 21:45:05 10° SSE visible
27 Jan - 05:01:32 10° SW 05:06:09 73° SE 05:10:44 10° ENE visible
27 Jan - 07:30:07 10° NW 07:31:57 12° NNW 07:33:59 10° N daylight
27 Jan - 12:27:34 10° N 12:37:10 18° NNE 12:50:06 10° ENE daylight
27 Jan - 14:51:41 10° NW 15:11:13 51° NE 15:36:03 10° ESE daylight
27 Jan - 17:20:07 10° WNW 17:45:10 77° SW 18:08:23 10° SE daylight
27 Jan - 19:57:29 10° W 20:19:01 33° SW 20:34:40 10° SSE visible
